Weather History for LDPL - February, 2014

Change the Weather History Date:

Thursday, February 6, 2014

  Actual Average Record
Temperature  
Mean Temperature 48 °F -  
Max Temperature 56 °F - - ()
Min Temperature 41 °F - - ()
Degree Days  
Heating Degree Days 16    
Moisture  
Dew Point 43 °F    
Average Humidity 85    
Maximum Humidity 93    
Minimum Humidity 51    
Precipitation  
Precipitation 0.00 in - - ()
Sea Level Pressure  
Sea Level Pressure 29.89 in    
Wind  
Wind Speed 6 mph ()    
Max Wind Speed 13 mph    
Max Gust Speed -    
Visibility 7.3 miles    
Events Rain    
T = Trace of Precipitation, MM = Missing Value Source: Averaged Metar Reports

Daily Weather History Graph

Daily Weather History Graph

Search for Another Location

Airport or City:

Trip Planner

Search our weather history database for the weather conditions in past years. The results will help you decide how hot, cold, wet, or windy it might be!

Date:

Astronomy

Feb. 06, 2014 Rise Set
Actual Time 7:17 AM CET 5:19 PM CET
Civil Twilight 6:47 AM CET 5:50 PM CET
Nautical Twilight 6:12 AM CET 6:24 PM CET
Astronomical Twilight 5:38 AM CET 6:59 PM CET
Moon 10:40 AM CET (2/6) 12:15 AM CET (2/6)
Length of Visible Light 11h 02m
Length of Day
10h 01m
Waxing Crescent, 46% of the Moon is Illuminated
Feb 6
Waxing Crescent
Feb 6
First Quarter
Feb 15
Full
Feb 22
Last Quarter
Mar 1
New

Hourly Weather History & Observations

Time (CET) Temp. Windchill Dew Point Humidity Pressure Visibility Wind Dir Wind Speed Gust Speed Precip Events Conditions
12:00 AM 48.2 °F - 44.6 °F 87% 29.80 in - East 8.1 mph - N/A   Clear
12:30 AM 50.0 °F - 46.4 °F 87% 29.80 in 6.2 mi East 6.9 mph - N/A   Partly Cloudy
1:00 AM 49 °F - 45 °F 81% 29.81 in 16 mi East 8.9 mph - -   Overcast
1:00 AM 48.2 °F - 44.6 °F 87% 29.80 in 6.2 mi East 8.1 mph - N/A   Partly Cloudy
1:30 AM 48.2 °F - 44.6 °F 87% 29.77 in 6.2 mi East 6.9 mph - N/A   Partly Cloudy
2:00 AM 48.2 °F - 44.6 °F 87% 29.77 in 6.2 mi ENE 6.9 mph - N/A   Partly Cloudy
2:30 AM 48.2 °F - 44.6 °F 87% 29.77 in 6.2 mi East 6.9 mph - N/A   Scattered Clouds
3:00 AM 48.2 °F - 44.6 °F 87% 29.77 in 6.2 mi ENE 6.9 mph - N/A   Scattered Clouds
3:30 AM 48.2 °F - 44.6 °F 87% 29.77 in 6.2 mi ENE 6.9 mph - N/A Rain Light Rain
4:00 AM 47 °F - 44 °F 85% 29.81 in 4 mi WSW 6.7 mph - - Rain Rain
4:00 AM 46.4 °F 43.5 °F 44.6 °F 93% 29.80 in 4.3 mi WSW 5.8 mph - N/A Rain Rain
4:30 AM 44.6 °F 42.2 °F 42.8 °F 93% 29.80 in 5.6 mi NW 4.6 mph - N/A Rain Rain
5:00 AM 46 °F - 44 °F 88% 29.83 in 8 mi North 4.5 mph - - Rain Light Rain
5:00 AM 46.4 °F 44.3 °F 44.6 °F 93% 29.80 in 6.2 mi North 4.6 mph - N/A Rain Light Rain
5:30 AM 46.4 °F 43.5 °F 44.6 °F 93% 29.80 in 6.2 mi North 5.8 mph - N/A Rain Light Rain
6:00 AM 46 °F - 43 °F 87% 29.82 in 9 mi NNE 8.9 mph - -   Overcast
6:00 AM 44.6 °F 40.7 °F 42.8 °F 93% 29.80 in 6.2 mi NNE 6.9 mph - N/A Rain Light Rain
6:30 AM 46.4 °F 42.9 °F 42.8 °F 87% 29.80 in 6.2 mi NNE 6.9 mph - N/A   Mostly Cloudy
7:00 AM 46 °F - 43 °F 85% 29.84 in 12 mi NE 6.7 mph - - Rain Light Rain
7:00 AM 46.4 °F 43.5 °F 42.8 °F 87% 29.83 in 6.2 mi NE 5.8 mph - N/A Rain Light Rain
7:30 AM 46.4 °F 42.9 °F 42.8 °F 87% 29.83 in 6.2 mi NE 6.9 mph - N/A   Mostly Cloudy
8:00 AM 46.4 °F 43.5 °F 42.8 °F 87% 29.83 in 6.2 mi NE 5.8 mph - N/A   Mostly Cloudy
8:30 AM 46.4 °F 45.2 °F 42.8 °F 87% 29.86 in 6.2 mi Variable 3.5 mph - N/A   Mostly Cloudy
9:00 AM 46.4 °F - 44.6 °F 93% 29.86 in 6.2 mi Variable 2.3 mph - N/A   Mostly Cloudy
9:30 AM 46.4 °F 45.2 °F 44.6 °F 93% 29.89 in 6.2 mi Variable 3.5 mph - N/A   Mostly Cloudy
10:00 AM 47 °F - 44 °F 87% 29.92 in 19 mi North 4.5 mph - -   Partly Cloudy
10:00 AM 48.2 °F - 44.6 °F 87% 29.89 in 6.2 mi Variable 3.5 mph - N/A   Mostly Cloudy
10:30 AM 48.2 °F - 44.6 °F 87% 29.92 in 6.2 mi Variable 2.3 mph - N/A   Scattered Clouds
11:00 AM 50.0 °F - 44.6 °F 82% 29.92 in 6.2 mi NE 4.6 mph - N/A   Partly Cloudy
11:30 AM 51.8 °F - 42.8 °F 71% 29.92 in 6.2 mi NNW 4.6 mph - N/A   Scattered Clouds
12:00 PM 53.6 °F - 46.4 °F 77% 29.92 in 6.2 mi Variable 3.5 mph - N/A   Scattered Clouds
12:30 PM 53.6 °F - 46.4 °F 77% 29.92 in 6.2 mi NW 5.8 mph - N/A   Partly Cloudy
1:00 PM 56 °F - 43 °F 51% 29.92 in 25 mi WSW 2.2 mph - -   Partly Cloudy
1:00 PM 55.4 °F - 42.8 °F 63% 29.92 in 6.2 mi Variable 1.2 mph - N/A   Partly Cloudy
1:30 PM 53.6 °F - 41.0 °F 62% 29.89 in 6.2 mi Variable 2.3 mph - N/A   Partly Cloudy
2:00 PM 55.4 °F - 44.6 °F 67% 29.92 in 6.2 mi West 8.1 mph - N/A   Scattered Clouds
2:30 PM 53.6 °F - 44.6 °F 72% 29.92 in 6.2 mi West 6.9 mph - N/A   Mostly Cloudy
3:00 PM 51.8 °F - 44.6 °F 76% 29.92 in 6.2 mi West 9.2 mph - N/A   Scattered Clouds
3:30 PM 51.8 °F - 44.6 °F 76% 29.95 in 6.2 mi WNW 10.4 mph - N/A   Partly Cloudy
4:00 PM 51 °F - 44 °F 68% 29.96 in 25 mi WNW 8.9 mph - -   Scattered Clouds
4:00 PM 51.8 °F - 42.8 °F 71% 29.95 in 6.2 mi WNW 9.2 mph - N/A   Partly Cloudy
4:30 PM 50.0 °F - 44.6 °F 82% 29.95 in 6.2 mi West 12.7 mph - N/A   Partly Cloudy
5:00 PM 50.0 °F - 44.6 °F 82% 29.98 in 6.2 mi WNW 10.4 mph - N/A   Mostly Cloudy
5:30 PM 48.2 °F - 42.8 °F 82% 29.98 in 6.2 mi WNW 8.1 mph - N/A   Mostly Cloudy
6:00 PM 44.6 °F 43.1 °F 42.8 °F 93% 29.98 in 6.2 mi Variable 3.5 mph - N/A   Scattered Clouds
6:30 PM 44.6 °F 42.2 °F 42.8 °F 93% 29.98 in 6.2 mi NNW 4.6 mph - N/A   Partly Cloudy
7:00 PM 44 °F - 41 °F 86% 30.01 in 19 mi North 2.2 mph - -   Clear
7:00 PM 44.6 °F - 41.0 °F 87% 29.98 in - Variable 2.3 mph - N/A   Clear
7:30 PM 42.8 °F 41.1 °F 41.0 °F 93% 29.98 in - Variable 3.5 mph - N/A   Clear
8:00 PM 42.8 °F 41.1 °F 41.0 °F 93% 29.98 in - Variable 3.5 mph - N/A   Clear
8:30 PM 42.8 °F - 41.0 °F 93% 29.98 in - Variable 1.2 mph - N/A   Clear
9:00 PM 41.0 °F 39.0 °F 39.2 °F 93% 30.01 in - Variable 3.5 mph - N/A   Clear
9:30 PM 41.0 °F - 39.2 °F 93% 30.01 in 6.2 mi Variable 1.2 mph - N/A   Partly Cloudy
10:00 PM 42 °F - 40 °F 92% 30.02 in 19 mi NE 2.2 mph - -   Partly Cloudy
10:00 PM 42.8 °F - 41.0 °F 93% 30.01 in 6.2 mi Variable 1.2 mph - N/A   Scattered Clouds
10:30 PM 42.8 °F - 41.0 °F 93% 30.01 in 6.2 mi Variable 1.2 mph - N/A   Mostly Cloudy
11:00 PM 44.6 °F - 41.0 °F 87% 30.01 in 6.2 mi Variable 1.2 mph - N/A   Mostly Cloudy
11:30 PM 44.6 °F - 42.8 °F 93% 30.01 in 6.2 mi Variable 1.2 mph - N/A   Mostly Cloudy